• In Deutschland
  • Länderverzeichnis
  • Für 7 Tage
  • Wassertemperatur
  • Satellitenkarten
  • Wetterkarte
  • Widgets
  • user-avatar
    Anmelden

    Stündliche Wetter Bretten

    Heute, 26 September, Mittwoch

    Zeit Temperatur Niederschläge Wind Luftdruck Luftfeuchtigkeit
    00:00 +7°C° 0 mm 2 m/S 759 mmHg 64%
    01:00 +7°C° 0 mm 2 m/S 759 mmHg 65%
    02:00 +6°C° 0 mm 2 m/S 759 mmHg 66%
    03:00 +6°C° 0 mm 2 m/S 758 mmHg 67%
    04:00 +5°C° 0 mm 2 m/S 758 mmHg 68%
    05:00 +5°C° 0 mm 2 m/S 758 mmHg 68%
    06:00 +6°C° 0 mm 1 m/S 758 mmHg 68%
    07:00 +6°C° 0 mm 1 m/S 758 mmHg 68%
    08:00 +9°C° 0 mm 1 m/S 758 mmHg 59%
    09:00 +12°C° 0 mm 1 m/S 758 mmHg 51%
    10:00 +14°C° 0 mm 1 m/S 758 mmHg 42%
    11:00 +16°C° 0 mm 1 m/S 758 mmHg 38%
    12:00 +19°C° 0 mm 1 m/S 758 mmHg 34%
    13:00 +19°C° 0 mm 0 m/S 758 mmHg 30%
    14:00 +19°C° 0 mm 0 m/S 757 mmHg 31%
    15:00 +19°C° 0 mm 0 m/S 757 mmHg 31%
    16:00 +19°C° 0 mm 0 m/S 757 mmHg 32%
    17:00 +17°C° 0 mm 0 m/S 757 mmHg 37%
    18:00 +15°C° 0 mm 0 m/S 757 mmHg 41%
    19:00 +12°C° 0 mm 0 m/S 757 mmHg 46%
    20:00 +12°C° 0 mm 0 m/S 757 mmHg 47%
    21:00 +11°C° 0 mm 0 m/S 757 mmHg 48%
    22:00 +11°C° 0 mm 0 m/S 757 mmHg 50%
    23:00 +12°C° 0 mm 1 m/S 757 mmHg 51%

    Morgen, 27 September, Donnerstag

    Zeit Temperatur Niederschläge Wind Luftdruck Luftfeuchtigkeit
    00:00 +11°C° 0 mm 1 m/S 757 mmHg 52%
    01:00 +11°C° 0 mm 1 m/S 757 mmHg 53%
    02:00 +11°C° 0 mm 1 m/S 757 mmHg 54%
    03:00 +11°C° 0 mm 1 m/S 757 mmHg 55%
    04:00 +10°C° 0 mm 1 m/S 756 mmHg 56%
    05:00 +10°C° 0 mm 1 m/S 756 mmHg 57%
    06:00 +11°C° 0 mm 1 m/S 756 mmHg 58%
    07:00 +11°C° 0 mm 1 m/S 756 mmHg 59%
    08:00 +13°C° 0 mm 1 m/S 756 mmHg 53%
    09:00 +16°C° 0 mm 1 m/S 756 mmHg 47%
    10:00 +20°C° 0 mm 1 m/S 756 mmHg 41%
    11:00 +22°C° 0 mm 1 m/S 755 mmHg 38%
    12:00 +23°C° 0 mm 1 m/S 754 mmHg 35%
    13:00 +25°C° 0 mm 1 m/S 754 mmHg 32%
    14:00 +25°C° 0 mm 1 m/S 753 mmHg 33%
    15:00 +25°C° 0 mm 1 m/S 753 mmHg 35%
    16:00 +25°C° 0 mm 1 m/S 752 mmHg 37%
    17:00 +22°C° 0 mm 1 m/S 752 mmHg 43%
    18:00 +20°C° 0 mm 1 m/S 751 mmHg 50%
    19:00 +16°C° 0 mm 1 m/S 751 mmHg 56%
    20:00 +16°C° 0 mm 1 m/S 751 mmHg 59%
    21:00 +15°C° 0 mm 1 m/S 751 mmHg 61%
    22:00 +15°C° 0 mm 1 m/S 751 mmHg 63%
    23:00 +14°C° 0 mm 1 m/S 751 mmHg 66%

    übermorgen, 28 September, Freitag

    Zeit Temperatur Niederschläge Wind Luftdruck Luftfeuchtigkeit
    00:00 +14°C° 0 mm 1 m/S 751 mmHg 68%
    01:00 +14°C° 0 mm 1 m/S 750 mmHg 71%
    02:00 +13°C° 0 mm 1 m/S 750 mmHg 74%
    03:00 +13°C° 0 mm 1 m/S 750 mmHg 76%
    04:00 +12°C° 0 mm 1 m/S 750 mmHg 79%
    05:00 +12°C° 0 mm 1 m/S 750 mmHg 80%
    06:00 +12°C° 0 mm 1 m/S 750 mmHg 81%
    07:00 +11°C° 0 mm 0 m/S 750 mmHg 81%
    08:00 +14°C° 0 mm 1 m/S 750 mmHg 73%
    09:00 +16°C° 0 mm 1 m/S 750 mmHg 64%
    10:00 +19°C° 0 mm 1 m/S 750 mmHg 56%
    11:00 +20°C° 0 mm 1 m/S 749 mmHg 52%
    12:00 +20°C° 0 mm 2 m/S 749 mmHg 48%
    13:00 +21°C° 0 mm 2 m/S 749 mmHg 45%
    14:00 +21°C° 0 mm 2 m/S 749 mmHg 45%
    15:00 +21°C° 0 mm 2 m/S 748 mmHg 46%
    16:00 +21°C° 0 mm 3 m/S 748 mmHg 46%
    17:00 +19°C° 0 mm 3 m/S 748 mmHg 53%
    18:00 +17°C° 0 mm 3 m/S 748 mmHg 60%
    19:00 +14°C° 0 mm 3 m/S 749 mmHg 67%
    20:00 +13°C° 0 mm 3 m/S 749 mmHg 71%
    21:00 +13°C° 0 mm 3 m/S 750 mmHg 75%
    22:00 +12°C° 0 mm 3 m/S 750 mmHg 79%
    23:00 +11°C° 0 mm 3 m/S 751 mmHg 79%

    29 September, Samstag

    Zeit Temperatur Niederschläge Wind Luftdruck Luftfeuchtigkeit
    00:00 +11°C° 0 mm 3 m/S 751 mmHg 78%
    01:00 +11°C° 0 mm 3 m/S 751 mmHg 77%
    02:00 +10°C° 0 mm 3 m/S 751 mmHg 77%
    03:00 +10°C° 0 mm 3 m/S 751 mmHg 76%
    04:00 +9°C° 0 mm 3 m/S 752 mmHg 76%
    05:00 +9°C° 0 mm 3 m/S 752 mmHg 76%
    06:00 +8°C° 0 mm 3 m/S 752 mmHg 76%
    07:00 +8°C° 0 mm 3 m/S 753 mmHg 76%
    08:00 +9°C° 0 mm 3 m/S 753 mmHg 69%
    09:00 +11°C° 0 mm 4 m/S 753 mmHg 62%
    10:00 +12°C° 0 mm 4 m/S 753 mmHg 54%
    11:00 +13°C° 0 mm 4 m/S 753 mmHg 50%
    12:00 +14°C° 0 mm 4 m/S 753 mmHg 46%
    13:00 +15°C° 0 mm 4 m/S 753 mmHg 42%
    14:00 +15°C° 0 mm 4 m/S 752 mmHg 42%
    15:00 +15°C° 0 mm 4 m/S 752 mmHg 42%
    16:00 +15°C° 0 mm 4 m/S 752 mmHg 41%
    17:00 +13°C° 0 mm 3 m/S 752 mmHg 46%
    18:00 +12°C° 0 mm 3 m/S 752 mmHg 50%
    19:00 +10°C° 0 mm 3 m/S 753 mmHg 55%
    20:00 +10°C° 0 mm 3 m/S 753 mmHg 57%
    21:00 +9°C° 0 mm 3 m/S 753 mmHg 59%
    22:00 +8°C° 0 mm 3 m/S 753 mmHg 61%
    23:00 +8°C° 0 mm 2 m/S 752 mmHg 63%

    30 September, Sonntag

    Zeit Temperatur Niederschläge Wind Luftdruck Luftfeuchtigkeit
    00:00 +8°C° 0 mm 2 m/S 752 mmHg 65%
    01:00 +7°C° 0 mm 2 m/S 751 mmHg 66%
    02:00 +7°C° 0 mm 2 m/S 751 mmHg 68%
    03:00 +6°C° 0 mm 2 m/S 751 mmHg 69%
    04:00 +6°C° 0 mm 2 m/S 750 mmHg 70%
    05:00 +6°C° 0 mm 2 m/S 750 mmHg 70%
    06:00 +6°C° 0 mm 2 m/S 750 mmHg 70%
    07:00 +5°C° 0 mm 2 m/S 750 mmHg 70%
    08:00 +8°C° 0 mm 2 m/S 750 mmHg 62%
    09:00 +10°C° 0 mm 3 m/S 750 mmHg 55%
    10:00 +12°C° 0 mm 3 m/S 749 mmHg 47%
    11:00 +13°C° 0 mm 3 m/S 749 mmHg 43%
    12:00 +16°C° 0 mm 3 m/S 748 mmHg 39%
    13:00 +17°C° 0 mm 3 m/S 748 mmHg 35%
    14:00 +17°C° 0 mm 3 m/S 747 mmHg 36%
    15:00 +17°C° 0 mm 3 m/S 747 mmHg 37%
    16:00 +18°C° 0 mm 3 m/S 746 mmHg 38%
    17:00 +16°C° 0 mm 2 m/S 746 mmHg 45%
    18:00 +14°C° 0 mm 2 m/S 746 mmHg 51%
    19:00 +12°C° 0 mm 1 m/S 746 mmHg 58%
    20:00 +11°C° 0 mm 1 m/S 746 mmHg 61%
    21:00 +10°C° 0 mm 1 m/S 746 mmHg 64%
    22:00 +10°C° 0 mm 1 m/S 746 mmHg 67%
    23:00 +9°C° 0 mm 1 m/S 745 mmHg 69%

    1 Oktober, Montag

    Zeit Temperatur Niederschläge Wind Luftdruck Luftfeuchtigkeit
    00:00 +9°C° 0 mm 1 m/S 745 mmHg 71%
    01:00 +8°C° 0 mm 1 m/S 744 mmHg 73%
    02:00 +8°C° 0 mm 1 m/S 744 mmHg 75%
    03:00 +8°C° 0 mm 1 m/S 744 mmHg 76%
    04:00 +6°C° 0 mm 0 m/S 744 mmHg 78%
    05:00 +6°C° 0 mm 0 m/S 743 mmHg 78%
    06:00 +6°C° 0 mm 0 m/S 743 mmHg 78%
    07:00 +6°C° 0 mm 0 m/S 743 mmHg 78%
    08:00 +9°C° 0 mm 1 m/S 743 mmHg 69%
    09:00 +12°C° 0 mm 1 m/S 743 mmHg 61%
    10:00 +14°C° 0 mm 1 m/S 743 mmHg 52%
    11:00 +15°C° 0 mm 2 m/S 742 mmHg 49%
    12:00 +16°C° 0 mm 2 m/S 742 mmHg 46%
    13:00 +17°C° 0 mm 3 m/S 741 mmHg 42%
    14:00 +17°C° 0 mm 3 m/S 741 mmHg 43%
    15:00 +17°C° 0 mm 3 m/S 741 mmHg 43%
    16:00 +16°C° 0 mm 3 m/S 740 mmHg 44%
    17:00 +14°C° 0 mm 3 m/S 741 mmHg 48%
    18:00 +13°C° 0 mm 3 m/S 741 mmHg 52%
    19:00 +12°C° 0 mm 3 m/S 741 mmHg 57%
    20:00 +11°C° 0 mm 3 m/S 741 mmHg 64%
    21:00 +10°C° 0 mm 2 m/S 742 mmHg 72%
    22:00 +9°C° 0 mm 2 m/S 742 mmHg 80%
    23:00 +9°C° 0.1 mm 2 m/S 742 mmHg 82%
    Mehr zeigen